STARLINK-31914, 59902

Orbit data source: Space-Track

STARLINK-31914, 59902 is a payload satellite owned by SpaceX/Seattle (US) in LEO that was launched on Tue, 28 May 2024 UTC via an FALCON 9 launch vehicle from the Air Force Eastern Test Range (AFETR). Payload-class satellites include a variety of spacecraft equipped with specific instruments for various scientific and technological missions. These include communications satellites like Starlink; space stations such as the ISS; scientific satellites like the Hubble; Earth observation satellites from companies like Planet Labs, Umbra, and HawkEye 360; GPS; miniature CubeSats for education and research; and military/defense satellites.

Loading next visibility...
Identifier
59902, 2024-100T
Orbit
LEO
Country
Flag of USUS
Related business
Manufacturer
SpaceX/Seattle
Mission
Operational spacecraft
Bus & Motor
STARLINK V2M, Unknown motor
Mass
730 kg wet, ~700 kg dry
Launch date (UTC)
2024-05-28 (1 year ago)
Launch vehicle
FALCON 9
Launch site
Air Force Eastern Test Range (AFETR)
Object type
Payload
Rocket body
Debris
Shape & HBR
Unknown shape, 17.7 m
Radar Cross Section
Large (>1 m²)

Expand to show TLE details & history
Last TLE update: 8 hours ago

TLE from 8 hours ago
0 STARLINK-31914
1 59902U 24100T   25297.68255528 -.00000051  00000-0  76460-5 0  9993
2 59902  42.9960 173.7219 0000432 341.8862  18.1974 15.27582010 80243
Epoch: 2025-10-24T16:22Z
TLE epoch observation values (Epoch: 2025-10-24T16:22:52.776Z)
Latitude
-0.00001°
Longitude
-105.32196°
Altitude
482.537 km
Speed
7.626 km/s
True Right ascension
11h 34m 53s
True Declination
0° 00' 00"
Sunlit
Object was in daylight at epoch
Visualization orbit readout
Latitude
Unknown
Longitude
Unknown
Altitude
Unknown
Speed
Unknown
Apparent Right ascension
Unknown
Apparent Declination
Unknown
Sunlit
N/A
Visualization observer readout
Local Sidereal Time
19:28:38
Azimuth
Unknown
Elevation
Unknown
Doppler factor
Unknown
Orbital elements
Apogee altitude
485.285 km
Perigee altitude
484.692 km
Semi-major axis
6,863.126 km
Eccentricity
0.00004
Inclination
42.996°
RAAN
173.7219°
Arg. of periapsis
341.8862°
True anomaly
18.19895°
Mean anomaly
18.1974°
Eccentric anomaly
18.19817°
Mean motion
3.81733 °/min
Orbital period
94.31 mins
BSTAR
0.000007646
Loading maneuver chart data...
Computing Atmospheric mass density...
Loading historical data...
Loading historical data...
Loading historical data...
Loading historical data...
Loading historical data...
Loading historical data...
Loading historical data...

Documentation

Showing up to 5 results
|